Regional Weather Roundup
Issued by NWS Little Rock, AR

Home | Current Version | Previous Version | Text Only | Print | Product List | Glossary On
Versions: 1 2 3 4 5 6 7 8 9 10 11 12 13 14 15 16 17 18 19 20 21 22 23 24 25 26 27 28 29 30 31 32 33 34 35 36 37 38 39 40 41 42 43 44 45 46 47 48 49 50
000
ASUS44 KLZK 301905
RWRLZK

WEATHER ROUNDUP FOR ARKANSAS
NATIONAL WEATHER SERVICE LITTLE ROCK AR
200 PM CDT TUE SEP 30 2014

NOTE: "FAIR" INDICATES FEW OR NO CLOUDS BELOW 12,000 FEET WITH NO
SIGNIFICANT WEATHER AND/OR OBSTRUCTIONS TO VISIBILITY.

ARZ001-003-010-029-302000-
NORTHWEST ARKANSAS

CITY           SKY/WX    TMP DP  RH WIND       PRES   REMARKS
FAYETTEVILLE   MOSUNNY   82  59  45 S13       29.92F
FORT SMITH     PTSUNNY   83  60  45 S7        29.89F
HARRISON       SUNNY     81  58  45 SE10      29.94F
BENTONVILLE    MOSUNNY   82  57  42 S7        29.93F
ROGERS         PTSUNNY   81  58  45 SE13      29.93F
SILOAM SPGS    CLOUDY    81  61  50 S10       29.93F
HIGHFILL       MOSUNNY   83  59  44 S12       29.91F
SPRINGDALE     MOSUNNY   81  59  47 SE10      29.94
$$

ARZ004-005-016-302000-
NORTH CENTRAL ARKANSAS

CITY           SKY/WX    TMP DP  RH WIND       PRES   REMARKS
BATESVILLE     SUNNY     86  52  30 S7        29.90F
FLIPPIN        MOSUNNY   82  52  34 E3        29.92F
MTN HOME       MOSUNNY   83  53  35 MISG      29.92F
$$

ARZ040-041-302000-
WEST CENTRAL ARKANSAS

CITY           SKY/WX    TMP DP  RH WIND       PRES   REMARKS
MENA           PTSUNNY   82  61  47 CALM      29.92F
MOUNT IDA      CLOUDY    81  61  50 VRB5      29.90F
$$

ARZ009-017-025-026-028-302000-
NORTHEAST ARKANSAS

CITY           SKY/WX    TMP DP  RH WIND       PRES   REMARKS
JONESBORO      SUNNY     86  55  34 SE8       29.89F
NEWPORT        MOSUNNY   88  55  32 VRB5      29.91F HX  86
WALNUT RIDGE   SUNNY     84  54  34 SW3       29.90F
BLYTHEVILLE    MOSUNNY   85  58  39 CALM      29.91F
$$

ARZ022-023-033-042-044-302000-
CENTRAL ARKANSAS

CITY           SKY/WX    TMP DP  RH WIND       PRES   REMARKS
LITTLE ROCK    PTSUNNY   86  54  33 S3        29.89F
N LITTLE ROCK  PTSUNNY   86  58  39 S6        29.89F HX  85
JACKSONVILLE   MOSUNNY   87  56  35 NW3       29.89F HX  85
SEARCY         MOSUNNY   86  54  33 SW5       29.91F
HOT SPRINGS    PTSUNNY   84  59  42 E5        29.90F
RUSSELLVILLE   MOSUNNY   85  59  41 SE3       29.90F
CLINTON        FAIR      88  55  33 S3        29.90F HX  86
$$

ARZ036-302000-
EAST ARKANSAS

CITY           SKY/WX    TMP DP  RH WIND       PRES   REMARKS
WEST MEMPHIS   PTSUNNY   86  62  44 VRB6      29.89F HX  86
$$

ARZ050-053-066-070-073-302000-
SOUTHWEST ARKANSAS

CITY           SKY/WX    TMP DP  RH WIND       PRES   REMARKS
ARKADELPHIA    FAIR      85  65  51 CALM      29.89F HX  86
CAMDEN         PTSUNNY   91  59  33 SE3       29.88F HX  90
TEXARKANA      PTSUNNY   85  65  51 VRB5      29.87F HX  86
EL DORADO      MOSUNNY   87  64  46 VRB3      29.89F HX  88
DE QUEEN       PTSUNNY   84  65  52 S6        29.87F HX  86
$$

ARZ056-057-069-302000-
SOUTHEAST ARKANSAS

CITY           SKY/WX    TMP DP  RH WIND       PRES   REMARKS
PINE BLUFF     PTSUNNY   85  58  39 NW3       29.89F
STUTTGART      MOSUNNY  N/A N/A N/A CALM      29.90F
MONTICELLO     PTSUNNY   86  60  41 CALM      29.88F HX  86

$$





USA.gov is the U.S. government's official web portal to all federal, state and local government web resources and services.